Regional Weather Roundup
Issued by NWS

Home | Current Version | Previous Version | Graphics & Text | Print | Product List | Glossary On
Versions: 1 2 3 4 5 6 7 8 9 10 11 12 13 14 15 16 17 18 19 20 21 22 23 24 25 26 27 28 29 30 31 32 33 34 35 36 37 38 39 40 41 42 43 44 45 46 47 48 49 50
000
ASUS45 KCYS 280310
RWRWY

WYOMING REGIONAL WEATHER ROUNDUP
NATIONAL WEATHER SERVICE CHEYENNE WY
900 PM MDT MON MAR 27 2017

NOTE:  "FAIR" INDICATES FEW OR NO CLOUDS BELOW 12,000 FEET
WITH NO SIGNIFICANT WEATHER AND/OR OBSTRUCTIONS TO VISIBILITY.

WYZ001-280400-
YELLOWSTONE NATIONAL PARK

CITY           SKY/WX    TMP DP  RH WIND       PRES   REMARKS
LK YELLOWSTONE   N/A     28  27  96 VRB6      30.00R WCI  22
W YELLOWSTONE  NOT AVBL

$$
WYZ002>013-054>058-071-098>099-280400-
NORTHERN WYOMING

CITY           SKY/WX    TMP DP  RH WIND       PRES   REMARKS
JACKSON        CLOUDY    36  34  93 N7        29.97R WCI  30
CODY           FAIR      45  34  65 NW10      29.94R
GREYBULL       FAIR      53  29  39 NW14      29.85R
WORLAND        CLOUDY    49  34  56 NE5       29.84R
SHERIDAN       CLOUDY    50  36  58 S7        29.90R
BUFFALO        MOCLDY    45  35  68 NW12      29.92S
GILLETTE         N/A    N/A N/A N/A MISG      29.88R
HULETT         FAIR      46  36  66 E10       29.91R
NEWCASTLE      FAIR      50  32  50 NE12G17   29.88R

$$
WYZ014>020-022>026-101>103-280400-
CENTRAL WYOMING

CITY           SKY/WX    TMP DP  RH WIND       PRES   REMARKS
BIG PINEY      CLOUDY    37  29  72 N10       29.92R WCI  30
PINEDALE       CLOUDY    36  28  75 N3        29.93R
DUBOIS         CLOUDY    36  27  69 NW5       29.92R WCI  32
LANDER         CLOUDY    48  27  44 W6        29.84R
RIVERTON       MOCLDY    49  25  39 N9        29.84R
CASPER         FAIR      46  31  55 NE7       29.84R
DOUGLAS        FAIR      49  29  46 E16       29.85R

$$
WYZ021-027>030-104>119-280400-
SOUTHERN WYOMING

CITY           SKY/WX    TMP DP  RH WIND       PRES   REMARKS
EVANSTON       LGT SNOW  33  30  88 N14       29.94R FOG     WCI  23
KEMMERER         N/A     32  32 100 NW7       29.92R WCI  26
FORT BRIDGER   SNOW      33  33 100 NW9       29.95R VSB 1/4 WCI  26
ROCK SPRINGS   LGT RAIN  37  34  89 NE10      29.88R WCI  30
DIXON            N/A     40  37  89 NE6       29.89R
RAWLINS        LGT RAIN  36  34  92 CALM      29.90R
SARATOGA       DRIZZLE   34  34 100 NE3       29.90S
LARAMIE        CLOUDY    36  34  92 CALM      29.88S
CHEYENNE       LGT RAIN  43  39  86 NE3       29.86F
TORRINGTON     CLOUDY    56  31  38 E6        29.84R
PINE BLUFFS    CLOUDY    52  32  46 S14G20    29.83R

$$



USA.gov is the U.S. government's official web portal to all federal, state and local government web resources and services.